Content
SEND FEEDBACK

Daily
Averages
Monthly
Summary
Iran

GORGAN, IRAN


Home > Middle East > Iran
Elevation: 509 feet     Latitude: 36 49N     Longitude: 054 28E

WEATHER
 
SELECT A DAY
Number of Records: 42,644;   Date Range: 6/2/04 - 8/31/14
 
SHARE

PRINT THIS DATA

[ ← Previous Day ]
WEATHER ALMANAC - JANUARY 23, 2013
[ Next Day → ]
[ °C ]   °F
Weather ElementAverageHighLow
Temperature53.6 °F75.2 °F (2:30 pm)37.4 °F (2:30 am)
Dewpoint43.9 °F53.6 °F (1:30 pm)33.8 °F (6:30 am)
Humidity71.3 %93 % (1:30 am)41 % (2:30 pm)
Barometer29.91 in29.95 in (6:30 pm)29.86 in (1:30 pm)
Wind Speed3.8 mph13.8 mph (5:30 pm)
Weather ElementAverage
Visibility6 mi
Wind DirectionENE (68.3 °)

Weather ElementTotal
Precipitation---
Heating Degree Days8.7 (Base 65)
Growing Degree Days6.3 (Base 50)
Averaged from 26 records on January 23, 2013
WEATHER CONDITIONS BREAKOUT
WIND DIRECTION BREAKOUT
WEATHER BY HOUR - JANUARY 23, 2013
[ °C ]   °F
Local TimeTemperatureDewpointHumidityBarometerVisibilityWind DirectionWind SpeedGust SpeedPrecipitationEventsConditions
1:30 AM39.2 °F37.4 °F93 %29.92 inCalmClear
2:30 AM37.4 °F35.6 °F93 %29.92 inCalmClear
3:30 AM41.0 °F36.0 °F77 %29.93 in6.0 miCalm
3:30 AM41.0 °F35.6 °F81 %29.92 inCalmClear
4:30 AM39.2 °F35.6 °F87 %29.89 inCalmClear
5:30 AM39.2 °F35.6 °F87 %29.89 inCalmClear
6:30 AM37.4 °F33.8 °F87 %29.92 inCalmClear
7:30 AM41.0 °F33.8 °F76 %29.92 inCalmClear
8:30 AM48.2 °F41.0 °F76 %29.92 inEast (90°)4.6 mphVolcanic Ash
9:30 AM59.0 °F47.0 °F56 %29.94 in6.0 miCalmClear
9:30 AM59.0 °F48.2 °F67 %29.92 inCalmClear
10:30 AM62.6 °F44.6 °F52 %29.92 inNE (50°)6.9 mphVolcanic Ash
11:30 AM69.8 °F51.8 °F53 %29.89 inEast (80°)6.9 mphClear
12:30 PM71.6 °F50.0 °F46 %29.89 inNE (50°)11.5 mphVolcanic Ash
1:30 PM71.6 °F53.6 °F53 %29.86 inNE (50°)6.9 mphClear
2:30 PM75.2 °F50.0 °F41 %29.86 inNE (50°)9.2 mphClear
3:30 PM73.4 °F51.8 °F47 %29.86 inNE (40°)6.9 mphClear
4:30 PM71.6 °F51.8 °F50 %29.89 inWSW (240°)4.6 mphClear
5:30 PM60.8 °F53.6 °F77 %29.92 inWSW (250°)13.8 mphClear
6:30 PM57.2 °F50.0 °F77 %29.95 inSW (230°)11.5 mphClear
7:30 PM55.4 °F46.4 °F72 %29.95 inSW (230°)9.2 mphClear
8:30 PM51.8 °F44.6 °F76 %29.95 inSSW (210°)6.9 mphClear
9:30 PM49.0 °F44.0 °F76 %29.95 in6.0 miCalm
9:30 PM48.2 °F44.6 °F87 %29.92 inCalmClear
10:30 PM46.4 °F42.8 °F87 %29.92 inCalmClear
11:30 PM46.4 °F41.0 °F81 %29.92 inCalmClear
Hourly data recorded from OING, located miles away from Gorgan, Iran







STORIES FROM OUR PARTNERS